• In Belarus
  • List of Countries
  • For 7 days
  • Water Temperature
  • Satellite Maps
  • Weather Map
  • Weather Widgets
  • user-avatar
    Login

    Hourly Weather Chubyns'ke

    Today, 19 February, Monday

    Time Temperature Precipitation Wind Pressure Humidity
    00:00 -5°C° 0 mm 2 mps 754 mmHg 91%
    01:00 -6°C° 0 mm 3 mps 754 mmHg 91%
    02:00 -7°C° 0 mm 3 mps 754 mmHg 92%
    03:00 -6°C° 0 mm 3 mps 755 mmHg 92%
    04:00 -6°C° 0 mm 3 mps 755 mmHg 92%
    05:00 -6°C° 0 mm 3 mps 755 mmHg 92%
    06:00 -7°C° 0 mm 4 mps 755 mmHg 90%
    07:00 -7°C° 0 mm 4 mps 755 mmHg 89%
    08:00 -7°C° 0 mm 4 mps 756 mmHg 87%
    09:00 -7°C° 0 mm 4 mps 756 mmHg 85%
    10:00 -5°C° 0 mm 4 mps 756 mmHg 83%
    11:00 -5°C° 0 mm 4 mps 756 mmHg 81%
    12:00 -5°C° 0 mm 4 mps 756 mmHg 80%
    13:00 -4°C° 0 mm 4 mps 756 mmHg 79%
    14:00 -4°C° 0 mm 4 mps 756 mmHg 78%
    15:00 -4°C° 0 mm 3 mps 756 mmHg 80%
    16:00 -4°C° 0 mm 3 mps 756 mmHg 82%
    17:00 -3°C° 0 mm 2 mps 756 mmHg 85%
    18:00 -5°C° 0 mm 3 mps 756 mmHg 86%
    19:00 -5°C° 0 mm 3 mps 756 mmHg 88%
    20:00 -5°C° 0 mm 3 mps 756 mmHg 90%
    21:00 -6°C° 0 mm 3 mps 756 mmHg 90%
    22:00 -6°C° 0 mm 3 mps 756 mmHg 90%
    23:00 -7°C° 0 mm 3 mps 756 mmHg 90%

    Tomorrow, 20 February, Tuesday

    Time Temperature Precipitation Wind Pressure Humidity
    00:00 -7°C° 0 mm 3 mps 756 mmHg 90%
    01:00 -7°C° 0 mm 3 mps 756 mmHg 90%
    02:00 -6°C° 0 mm 2 mps 756 mmHg 90%
    03:00 -6°C° 0 mm 2 mps 756 mmHg 90%
    04:00 -6°C° 0 mm 2 mps 756 mmHg 90%
    05:00 -7°C° 0 mm 2 mps 756 mmHg 90%
    06:00 -6°C° 0 mm 2 mps 756 mmHg 90%
    07:00 -6°C° 0 mm 2 mps 756 mmHg 91%
    08:00 -6°C° 0 mm 2 mps 756 mmHg 91%
    09:00 -3°C° 0 mm 1 mps 757 mmHg 88%
    10:00 -2°C° 0 mm 1 mps 757 mmHg 86%
    11:00 -1°C° 0 mm 1 mps 757 mmHg 83%
    12:00 -1°C° 0 mm 1 mps 757 mmHg 82%
    13:00 -1°C° 0 mm 1 mps 757 mmHg 81%
    14:00 0°C° 0 mm 1 mps 756 mmHg 80%
    15:00 -1°C° 0 mm 1 mps 756 mmHg 82%
    16:00 -1°C° 0 mm 1 mps 756 mmHg 84%
    17:00 -1°C° 0 mm 1 mps 756 mmHg 86%
    18:00 -2°C° 0 mm 1 mps 756 mmHg 87%
    19:00 -2°C° 0 mm 1 mps 756 mmHg 88%
    20:00 -3°C° 0 mm 1 mps 757 mmHg 89%
    21:00 -3°C° 0 mm 1 mps 757 mmHg 89%
    22:00 -3°C° 0 mm 1 mps 757 mmHg 90%
    23:00 -4°C° 0 mm 1 mps 757 mmHg 90%

    Day after tomorrow, 21 February, Wednesday

    Time Temperature Precipitation Wind Pressure Humidity
    00:00 -4°C° 0 mm 1 mps 757 mmHg 91%
    01:00 -6°C° 0 mm 1 mps 757 mmHg 91%
    02:00 -6°C° 0 mm 1 mps 757 mmHg 92%
    03:00 -6°C° 0 mm 1 mps 757 mmHg 92%
    04:00 -7°C° 0 mm 1 mps 757 mmHg 92%
    05:00 -7°C° 0 mm 1 mps 757 mmHg 92%
    06:00 -7°C° 0 mm 1 mps 757 mmHg 92%
    07:00 -7°C° 0 mm 1 mps 757 mmHg 92%
    08:00 -7°C° 0 mm 1 mps 757 mmHg 91%
    09:00 -6°C° 0 mm 1 mps 757 mmHg 89%
    10:00 -4°C° 0 mm 1 mps 757 mmHg 86%
    11:00 -5°C° 0 mm 2 mps 757 mmHg 83%
    12:00 -3°C° 0 mm 1 mps 757 mmHg 82%
    13:00 -3°C° 0 mm 1 mps 757 mmHg 81%
    14:00 -2°C° 0 mm 1 mps 757 mmHg 80%
    15:00 -5°C° 0 mm 2 mps 756 mmHg 82%
    16:00 -5°C° 0 mm 2 mps 756 mmHg 84%
    17:00 -5°C° 0 mm 2 mps 756 mmHg 86%
    18:00 -6°C° 0 mm 2 mps 756 mmHg 88%
    19:00 -6°C° 0 mm 2 mps 757 mmHg 89%
    20:00 -7°C° 0 mm 2 mps 757 mmHg 90%
    21:00 -7°C° 0 mm 2 mps 757 mmHg 90%
    22:00 -7°C° 0 mm 2 mps 757 mmHg 90%
    23:00 -7°C° 0 mm 2 mps 757 mmHg 90%

    22 February, Thursday

    Time Temperature Precipitation Wind Pressure Humidity
    00:00 -7°C° 0 mm 2 mps 757 mmHg 90%
    01:00 -8°C° 0 mm 2 mps 757 mmHg 90%
    02:00 -8°C° 0 mm 2 mps 758 mmHg 90%
    03:00 -8°C° 0 mm 2 mps 757 mmHg 90%
    04:00 -8°C° 0 mm 2 mps 757 mmHg 90%
    05:00 -10°C° 0 mm 3 mps 757 mmHg 90%
    06:00 -10°C° 0 mm 3 mps 757 mmHg 90%
    07:00 -10°C° 0 mm 3 mps 757 mmHg 90%
    08:00 -10°C° 0 mm 3 mps 757 mmHg 89%
    09:00 -9°C° 0 mm 3 mps 757 mmHg 87%
    10:00 -8°C° 0 mm 3 mps 757 mmHg 85%
    11:00 -7°C° 0 mm 3 mps 758 mmHg 83%
    12:00 -7°C° 0 mm 3 mps 757 mmHg 82%
    13:00 -6°C° 0 mm 3 mps 757 mmHg 81%
    14:00 -6°C° 0 mm 3 mps 757 mmHg 79%
    15:00 -6°C° 0 mm 3 mps 757 mmHg 81%
    16:00 -7°C° 0 mm 3 mps 756 mmHg 84%
    17:00 -7°C° 0 mm 3 mps 756 mmHg 86%
    18:00 -8°C° 0 mm 3 mps 756 mmHg 85%
    19:00 -8°C° 0 mm 3 mps 756 mmHg 85%
    20:00 -9°C° 0 mm 4 mps 756 mmHg 84%
    21:00 -8°C° 0 mm 3 mps 756 mmHg 84%
    22:00 -8°C° 0 mm 3 mps 756 mmHg 84%
    23:00 -8°C° 0 mm 3 mps 756 mmHg 83%

    23 February, Friday

    Time Temperature Precipitation Wind Pressure Humidity
    00:00 -8°C° 0.1 mm 3 mps 756 mmHg 85%
    01:00 -8°C° 0.1 mm 3 mps 756 mmHg 86%
    02:00 -8°C° 0.1 mm 3 mps 755 mmHg 87%
    03:00 -9°C° 0.2 mm 3 mps 755 mmHg 88%
    04:00 -10°C° 0.2 mm 4 mps 754 mmHg 89%
    05:00 -10°C° 0.2 mm 4 mps 754 mmHg 89%
    06:00 -10°C° 0.2 mm 4 mps 754 mmHg 89%
    07:00 -10°C° 0.2 mm 4 mps 753 mmHg 89%
    08:00 -10°C° 0.2 mm 4 mps 753 mmHg 89%
    09:00 -9°C° 0.1 mm 4 mps 753 mmHg 87%
    10:00 -10°C° 0.1 mm 5 mps 752 mmHg 85%
    11:00 -8°C° 0.1 mm 5 mps 752 mmHg 83%
    12:00 -8°C° 0.1 mm 5 mps 752 mmHg 83%
    13:00 -7°C° 0.1 mm 5 mps 751 mmHg 83%
    14:00 -7°C° 0.1 mm 5 mps 751 mmHg 82%
    15:00 -7°C° 0.3 mm 5 mps 750 mmHg 85%
    16:00 -7°C° 0.3 mm 5 mps 750 mmHg 87%
    17:00 -7°C° 0.3 mm 5 mps 749 mmHg 90%
    18:00 -7°C° 0.4 mm 5 mps 749 mmHg 90%
    19:00 -7°C° 0.4 mm 5 mps 748 mmHg 91%
    20:00 -7°C° 0.4 mm 5 mps 748 mmHg 91%
    21:00 -7°C° 0.3 mm 5 mps 747 mmHg 92%
    22:00 -7°C° 0.3 mm 5 mps 747 mmHg 92%
    23:00 -5°C° 0.3 mm 4 mps 747 mmHg 92%

    24 February, Saturday

    Time Temperature Precipitation Wind Pressure Humidity
    00:00 -5°C° 0.3 mm 4 mps 746 mmHg 93%
    01:00 -4°C° 0.3 mm 4 mps 745 mmHg 93%
    02:00 -4°C° 0.3 mm 4 mps 745 mmHg 94%
    03:00 -5°C° 0.3 mm 5 mps 744 mmHg 94%
    04:00 -4°C° 0.3 mm 5 mps 744 mmHg 94%
    05:00 -4°C° 0.3 mm 5 mps 743 mmHg 94%
    06:00 -4°C° 0.3 mm 5 mps 743 mmHg 94%
    07:00 -4°C° 0.3 mm 5 mps 742 mmHg 94%
    08:00 -4°C° 0.3 mm 5 mps 742 mmHg 94%
    09:00 -4°C° 0.4 mm 5 mps 741 mmHg 95%
    10:00 -2°C° 0.4 mm 5 mps 741 mmHg 95%
    11:00 -2°C° 0.4 mm 5 mps 741 mmHg 95%
    12:00 -2°C° 0.9 mm 5 mps 740 mmHg 96%
    13:00 -2°C° 0.9 mm 5 mps 739 mmHg 96%
    14:00 -2°C° 0.9 mm 6 mps 738 mmHg 97%
    15:00 -1°C° 2.9 mm 5 mps 737 mmHg 97%
    16:00 -1°C° 2.9 mm 5 mps 736 mmHg 97%
    17:00 -1°C° 2.9 mm 4 mps 736 mmHg 98%
    18:00 -1°C° 0.7 mm 4 mps 736 mmHg 98%
    19:00 -1°C° 0.7 mm 4 mps 736 mmHg 98%
    20:00 -1°C° 0.7 mm 4 mps 735 mmHg 99%
    21:00 -2°C° 0.1 mm 5 mps 736 mmHg 96%
    22:00 -4°C° 0.1 mm 6 mps 737 mmHg 94%
    23:00 -7°C° 0.1 mm 7 mps 738 mmHg 92%
    Show more